AirNav   Air Wisconsin pilot careers
 
 326 users online  

61TA Eagle Landing Airport
Avinger, Texas, USA

GOING TO AVINGER?


FAA INFORMATION EFFECTIVE 08 NOVEMBER 2018

Location

FAA Identifier: 61TA
Lat/Long: 32-53-02.4790N / 094-36-27.7300W
32-53.041317N / 094-36.462167W
32.8840219 / -94.6077028
(estimated)
Elevation: 380 ft. / 116 m (estimated)
Variation: 05E (1985)
From city: 3 miles SW of AVINGER, TX
Time zone: UTC -6 (UTC -5 during Daylight Saving Time)
Zip code: 75630

Airport Operations

Airport use: Private use. Permission required prior to landing
Activation date: 08/1982
Control tower: no
ARTCC: FORT WORTH CENTER
FSS: FORT WORTH FLIGHT SERVICE STATION
Attendance: UNATNDD
Wind indicator: yes
Segmented circle: no

Nearby radio navigation aids

VOR radial/distance  VOR name  Freq  Var
GGGr008/28.9GREGG COUNTY VORTAC112.3007E
UIMr082/38.3QUITMAN VOR/DME114.0008E

 
NDB name  Hdg/Dist  Freq  Var  ID
ATLANTA234/24.834704EATA .- - .-
AMBASSADOR048/31.240407EABG .- -... --.

Airport Services

Runway Information

Runway 7/25

Dimensions: 4000 x 100 ft. / 1219 x 30 m
Surface: turf
RUNWAY 7  RUNWAY 25
Traffic pattern: leftleft
Obstructions: 50 ft. trees, 200 ft. from runway50 ft. trees, 200 ft. from runway

Airport Ownership and Management from official FAA records

Ownership: Privately-owned
Owner: EAGLE LANDING HOMEOWNERS ASSN
P.O. BOX 1444
HUGHES SPRINGS, TX 75656
Phone (903) 562-1500
Manager: EAGLE LANDING HOMEOWNERS ASSN
P.O. BOX 1444
HUGHES SPRINGS, TX 75656
Phone (903) 562-1500
RANDY FRAZIER 903-241-6491 AND STEVE HOWARD 903-562-1500 AND 940-453-7197.

Airport Operational Statistics

Aircraft based on the field: 3
Single engine airplanes: 3
    

Additional Remarks

+365 FT LGTD TOWER 3 MILES EAST OF ARPT.
RWY TERRAIN SLIGHTLY ROLLING WITH AN APPROX MID-POINT ELEV OF 363 FT.
24 HR PPR, CALL 903-241-6491 OR 903-777-2607.
CTN DEER & MOWING TRACTORS INVOF RWY.

Instrument Procedures

There are no published instrument procedures at 61TA.

Some nearby airports with instrument procedures:

KJXI - Fox Stephens Field - Gilmer Municipal Airport (21 nm SW)
KOSA - Mount Pleasant Regional Airport (22 nm NW)
KATA - Hall-Miller Municipal Airport (25 nm NE)
KASL - Harrison County Airport (27 nm SE)
07F - Gladewater Municipal Airport (28 nm SW)
 
Loc | Ops | Rwys | IFR | FBO | Links
Com | Nav | Svcs | Stats | Notes


 
Area around 61TA (Eagle Landing Airport)
 
Road maps at: MapQuest Bing Google
 
Aerial photo
No photo
 
Sectional chart

 
Airport distance calculator
Flying to Eagle Landing Airport? Find the distance to fly.

From to 61TA

Sunrise and sunset
Times for 17-Nov-2018
 Local
(UTC-6)
 Zulu
(UTC)
Morning civil twilight06:2512:25
Sunrise06:5212:52
Sunset17:1523:15
Evening civil twilight17:4123:41

Current date and time
Zulu (UTC)  17-Nov-2018 07:54:43
Local (UTC-6)  17-Nov-2018 01:54:43
 
METAR
KJXI 
20nm SW 
170735Z AUTO 00000KT 10SM CLR 05/04 A3012 RMK AO2 T00450035
KOSA 
22nm NW 
170735Z AUTO 00000KT 10SM CLR 07/03 A3013 RMK AO1 T00650031
KASL 
27nm SE 
170735Z AUTO 00000KT 7SM CLR 03/02 A3016 RMK AO1 T00320023
KGGG 
31nm S 
170653Z AUTO 18005KT 10SM CLR 08/05 A3013 RMK AO2 SLP201 T00780050 $
TAF
KGGG 
31nm S 
170541Z 1706/1806 19006KT P6SM FEW250 FM171200 18006KT P6SM SCT020 BKN250 TEMPO 1717/1719 19011KT BKN030 BKN250 FM171900 20012KT P6SM BKN040 OVC250 FM172100 19009KT P6SM BKN045 OVC150 FM180100 16006KT P6SM OVC050
NOTAMs
Click for the latest NOTAMs
NOTAMs are issued by the DoD/FAA and will open in a separate window not controlled by AirNav.

 

 
 

Would you like to see your business listed on this page?

 If your business provides an interesting product or service to pilots, flight crews, aircraft, or users of the Eagle Landing Airport, you should consider listing it here.  To start the listing process, click on the button below
 
Add a business
 

Other Pages about Eagle Landing Airport

Update a link
 
Copyright © AirNav, LLC. All rights reserved. Privacy Policy  Contact